1306022433474,16.8312
1306022493474,16.8559
1306022553474,16.8259
1306022613474,16.7624
1306022673474,16.8023
1306022733474,16.8488
1306022793474,16.8253
1306022853474,16.8387
1306022913474,16.9077
1306022973474,16.8392
1306023033474,16.8800
1306023093474,16.8016
1306023153474,16.8819
1306023213474,16.8676
1306023273474,16.8693
1306023333474,16.8588
1306023393474,16.8515
1306023453474,16.8277
1306023513474,16.8367
1306023573474,16.8503
1306023633474,16.8376
1306023693474,16.8385
1306023753474,16.8236
1306023813474,16.8425
1306023873474,16.8262
1306023933474,16.8209
1306023993474,16.8379
1306024053474,16.8313
1306024113474,16.8268
1306024173474,16.7789
1306024233474,16.8106
1306024293474,16.8435
1306024353474,16.8944
1306024413474,16.8908
1306024473474,16.8452
1306024533474,16.8598
1306024593474,16.8925
1306024653474,16.8865
1306024713474,16.9235
1306024773474,16.9332
1306024833474,16.9196
1306024893474,16.8868
1306024953474,16.8665
1306025013474,16.8234
1306025073474,16.8917
1306025133474,16.9324
1306025193474,16.8472
1306025253474,16.8377
1306025313474,16.8708
1306025373474,16.8426
1306025433474,16.8168
1306025493474,16.8285
1306025553474,16.9094
1306025613474,16.7915
1306025673474,16.8100
1306025733474,16.8342
1306025793474,16.8188
1306025853474,16.8395
1306025913474,16.8535
1306025973474,16.8641
1306026033485,16.7957
1306026093485,16.8488
1306026153485,16.8168
1306026213485,16.8068
1306026273485,16.8056
1306026333485,16.8154
1306026393485,16.8398
1306026453485,16.8381
1306026513485,16.7956
1306026573485,16.8345
1306026633485,16.8424
1306026693485,16.7990
1306026753485,16.8422
1306026813485,16.8696
1306026873485,16.8599
1306026933485,16.8498
1306026993485,16.8792
1306027053485,16.8359
1306027113485,16.8648
1306027173485,16.8476
1306027233485,16.9036
1306027293485,16.8298
1306027353485,16.8539
1306027413485,16.8818
1306027473485,16.8483
1306027533485,16.8784
1306027593485,16.8524
1306027653485,16.8968
1306027713485,16.8954
1306027773485,16.8763
1306027833485,16.9029
1306027893485,16.8810
1306027953485,16.9533
1306028013485,16.8948
1306028073485,16.8355
1306028133485,16.8930
1306028193485,16.8782
1306028253485,16.8887
1306028313485,16.8877
1306028373485,16.8752
1306028433485,16.8492
1306028493485,16.8339
1306028553485,16.8289
1306028613485,16.8550
1306028673485,16.8685
1306028733485,16.8365
1306028793485,16.8778
1306028853485,16.8339
1306028913485,16.8367
1306028973485,16.8741
1306029033485,16.8532
1306029093485,16.8604
1306029153485,16.8979
1306029213485,16.8451
1306029273485,16.8777
1306029333485,16.8564
1306029393485,16.8599
1306029453485,16.8553
1306029513485,16.9168
1306029573485,16.8514
1306029633496,16.8662
1306029693496,16.8641
1306029753496,16.8242
1306029813496,16.8751
1306029873496,16.8165
1306029933496,16.8896
1306029993496,16.8738
1306030053496,16.8520
1306030113496,16.8788
1306030173496,16.8441
1306030233496,16.8480
1306030293496,16.8091
1306030353496,16.8209
1306030413496,16.9056
1306030473496,16.8400
1306030533496,16.8153
1306030593496,16.7806
1306030653496,16.8709
1306030713496,16.8228
1306030773496,16.8194
1306030833495,16.8564
1306030893496,16.8436
1306030953496,16.8657
1306031013496,16.8482
1306031073496,16.8434
1306031133496,16.8843
1306031193496,16.9253
1306031253496,16.8467
1306031313496,16.8769
1306031373496,16.8563
1306031433496,16.9013
1306031493496,16.8468
1306031553496,16.8761
1306031613496,16.8419
1306031673496,16.8481
1306031733496,16.8364
1306031793496,16.9055
1306031853496,16.8492
1306031913496,16.8888
1306031973496,16.9001
1306032033496,16.8899
1306032093496,16.8544
1306032153496,16.8584
1306032213495,16.8251
1306032273496,16.8151
1306032333496,16.8609
1306032393496,16.8584
1306032453496,16.8376
1306032513496,16.8353
1306032573496,16.8340
1306032633496,16.8522
1306032693496,16.8670
1306032753496,16.8113
1306032813496,16.8489
1306032873496,16.7982
1306032933496,16.8066
1306032993496,16.8714
1306033053496,16.8210
1306033113496,16.8530
1306033173496,16.8869
1306033233506,16.8218
1306033293506,16.8641
1306033353506,16.8451
1306033413506,16.8170
1306033473506,16.8321
1306033533506,16.8558
1306033593506,16.8148
1306033653506,16.8653
1306033713506,16.8377
1306033773506,16.8815
1306033833506,16.8843
1306033893506,16.8821
1306033953506,16.8776
1306034013506,16.8878
1306034073506,16.8455
1306034133506,16.8882
1306034193506,16.9264
1306034253506,16.8468
1306034313506,16.7563
1306034373506,16.7964
1306034433506,16.8024
1306034493506,16.8002
1306034553506,16.8474
1306034613506,16.8472
1306034673506,16.8380
1306034733506,16.8205
1306034793506,16.8199
1306034853506,16.8394
1306034913506,16.8187
1306034973506,16.8239
1306035033506,16.8235
1306035093506,16.8292
1306035153506,16.8261
1306035213506,16.7954
1306035273506,16.7775
1306035333506,16.8536
1306035393506,16.8284
1306035453506,16.7884
1306035513506,16.8040
1306035573506,16.8394
1306035633506,16.8414
1306035693506,16.8341
1306035753506,16.7853
1306035813506,16.8723
1306035873506,16.8616
1306035933506,16.8410
1306035993506,16.8358
1306036053506,16.8554
1306036113506,16.8053
1306036173506,16.7950
1306036233506,16.8152
1306036293506,16.8215
1306036353506,16.8116
1306036413506,16.8185
1306036473506,16.7803
1306036533506,16.8190
1306036593506,16.8173
1306036653506,16.7818
1306036713506,16.7811
1306036773506,16.8154
1306036833516,16.7751
1306036893516,16.7533
1306036953516,16.7625
1306037013516,16.7609
1306037073516,16.7939
1306037133516,16.7702
1306037193516,16.7732
1306037253516,16.7319
1306037313516,16.7747
1306037373516,16.7578
1306037433516,16.7833
1306037493516,16.7882
1306037553516,16.8215
1306037613516,16.7960
1306037673516,16.7652
1306037733516,16.8073
1306037793516,16.7514
1306037853516,16.7380
1306037913516,16.7952
1306037973516,16.8161
1306038033516,16.7605
1306038093516,16.7751
1306038153516,16.7637
1306038213516,16.7670
1306038273516,16.8349
1306038333516,16.8129
1306038393516,16.7955
1306038453516,16.7533
1306038513516,16.8332
1306038573516,16.8128
1306038633516,16.7957
1306038693516,16.8113
1306038753516,16.7794
1306038813516,16.8008
1306038873516,16.8045
1306038933516,16.7852
1306038993516,16.7577
1306039053516,16.7966
1306039113516,16.7492
1306039173516,16.7583
1306039233516,16.7892
1306039293516,16.7573
1306039353516,16.7701
1306039413516,16.7599
1306039473516,16.8020
1306039533516,16.7833
1306039593516,16.7818
1306039653516,16.7840
1306039713516,16.7850
1306039773516,16.8321
1306039833516,16.7807
1306039893516,16.7828
1306039953516,16.8028
1306040013516,16.8030
1306040073516,16.7967
1306040133516,16.7524
1306040193516,16.7824
1306040253516,16.7593
1306040313516,16.8462
1306040373516,16.7518
1306040433526,16.7380
1306040493526,16.7368
1306040553526,16.8173
1306040613526,16.7744
1306040673526,16.7535
1306040733526,16.7658
1306040793526,16.7970
1306040853526,16.8064
1306040913526,16.7509
1306040973526,16.7946
1306041033526,16.7908
1306041093526,16.8329
1306041153526,16.7750
1306041213526,16.7775
1306041273526,16.7784
1306041333526,16.7727
1306041393526,16.7769
1306041453526,16.8613
1306041513526,16.7784
1306041573526,16.7887
1306041633526,16.8047
1306041693526,16.8122
1306041753526,16.8384
1306041813526,16.7895
1306041873526,16.7665
1306041933526,16.8121
1306041993526,16.8071
1306042053526,16.7913
1306042113526,16.8256
1306042173526,16.8063
1306042233526,16.7702
1306042293526,16.7962
1306042353526,16.7801
1306042413526,16.7577
1306042473526,16.8315
1306042533526,16.8448
1306042593526,16.7784
1306042653526,16.7922
1306042713526,16.7926
1306042773526,16.8107
1306042833526,16.7861
1306042893526,16.8070
1306042953526,16.8197
1306043013526,16.7878
1306043073526,16.8110
1306043133526,16.8495
1306043193526,16.7964
1306043253526,16.8338
1306043313526,16.8329
1306043373526,16.8158
1306043433526,16.7904
1306043493526,16.8278
1306043553526,16.8276
1306043613526,16.8138
1306043673526,16.8013
1306043733526,16.8003
1306043793526,16.7880
1306043853526,16.7724
1306043913526,16.7643
1306043973526,16.8046
1306044033536,16.8130
1306044093536,16.8060
1306044153536,16.7771
1306044213536,16.7794
1306044273536,16.8176
1306044333536,16.8033
1306044393536,16.7545
1306044453536,16.7769
1306044513536,16.7454
1306044573536,16.7549
1306044633536,16.7897
1306044693536,16.8280
1306044753536,16.8322
1306044813536,16.8227
1306044873536,16.7989
1306044933536,16.8006
1306044993536,16.8207
1306045053536,16.8558
1306045113536,16.8456
1306045173536,16.8803
1306045233536,16.8432
1306045293536,16.8283
1306045353536,16.7584
1306045413536,16.7801
1306045473536,16.8236
1306045533536,16.8042
1306045593536,16.7945
1306045653536,16.7713
1306045713536,16.7855
1306045773536,16.8227
1306045833536,16.8090
1306045893536,16.7888
1306045953536,16.7934
1306046013536,16.8643
1306046073536,16.8164
1306046133536,16.8264
1306046193536,16.8431
1306046253536,16.8150
1306046313536,16.8208
1306046373536,16.8321
1306046433536,16.8343
1306046493536,16.8265
1306046553536,16.8403
1306046613536,16.8558
1306046673536,16.8556
1306046733536,16.8167
1306046793536,16.8162
1306046853536,16.8032
1306046913536,16.8076
1306046973536,16.7881
1306047033536,16.7470
1306047093536,16.8492
1306047153536,16.8278
1306047213536,16.8334
1306047273536,16.8406
1306047333536,16.8223
1306047393536,16.8254
1306047453536,16.8030
1306047513536,16.8239
1306047573536,16.8147
1306047633546,16.8022
1306047693546,16.7943
1306047753546,16.7978
1306047813546,16.8227
1306047873546,16.8031
1306047933546,16.7908
1306047993546,16.7942
1306048053546,16.8101
1306048113546,16.8159
1306048173546,16.8274
1306048233546,16.8300
1306048293546,16.7920
1306048353546,16.8192
1306048413546,16.8283
1306048473546,16.8506
1306048533546,16.8367
1306048593546,16.8463
1306048653546,16.8263
1306048713546,16.8013
1306048773546,16.8412
1306048833546,16.8506
1306048893546,16.8023
1306048953546,16.8453
1306049013546,16.7849
1306049073546,16.8450
1306049133546,16.8331
1306049193546,16.8307
1306049253546,16.8229
1306049313546,16.8092
1306049373546,16.8303
1306049433546,16.8192
1306049493546,16.8485
1306049553546,16.8501
1306049613546,16.8415
1306049673546,16.8228
1306049733546,16.8313
1306049793546,16.8762
1306049853546,16.8541
1306049913546,16.8482
1306049973546,16.8581
1306050033546,16.8872
1306050093546,16.8760
1306050153546,16.8443
1306050213546,16.8433
1306050273546,16.8199
1306050333546,16.8477
1306050393546,16.8492
1306050453546,16.8514
1306050513546,16.8185
1306050573546,16.8685
1306050633546,16.8994
1306050693546,16.8784
1306050753546,16.9024
1306050813546,16.8192
1306050873546,16.8555
1306050933546,16.8750
1306050993546,16.8517
1306051053546,16.8395
1306051113546,16.8754
1306051173546,16.8770
1306051233555,16.8541
1306051293555,16.8748
1306051353555,16.8689
1306051413555,16.8564
1306051473555,16.8912
1306051533555,16.8815
1306051593555,16.8965
1306051653555,16.9311
1306051713555,16.8955
1306051773555,16.9341
1306051833555,16.9124
1306051893555,16.9279
1306051953555,16.8951
1306052013555,16.8693
1306052073555,16.8946
1306052133555,16.9115
1306052193555,16.9186
1306052253555,16.8937
1306052313555,16.9284
1306052373555,16.9244
1306052433555,16.9078
1306052493555,16.9041
1306052553555,16.9490
1306052613555,16.9071
1306052673555,16.9424
1306052733555,16.8813
1306052793555,16.9356
1306052853555,16.9390
1306052913555,16.9217
1306052973555,16.9274
1306053033555,16.9353
1306053093555,16.9142
1306053153555,16.8928
1306053213555,16.9479
1306053273555,16.9087
1306053333555,16.9072
1306053393555,16.9577
1306053453555,16.9797
1306053513555,16.9545
1306053573555,16.9664
1306053633555,16.9055
1306053693555,16.8875
1306053753555,16.9268
1306053813555,16.9238
1306053873555,16.9007
1306053933555,16.9310
1306053993555,16.8885
1306054053555,16.9217
1306054113555,16.8840
1306054173555,16.9530
1306054233555,16.9317
1306054293555,16.9318
1306054353555,16.9241
1306054413555,16.8880
1306054473555,16.9340
1306054533555,16.9389
1306054593555,16.9160
1306054653555,16.9427
1306054713555,16.9602
1306054773555,16.9228
1306054833565,16.9780
1306054893565,16.8856
1306054953565,16.9525
1306055013565,16.9344
1306055073565,16.9011
1306055133565,16.9165
1306055193565,16.9367
1306055253565,16.9298
1306055313565,16.9180
1306055373565,16.9002
1306055433565,16.9530
1306055493565,16.9052
1306055553565,16.9305
1306055613565,16.8585
1306055673565,16.9597
1306055733565,16.9667
1306055793565,16.9979
1306055853565,16.9491
1306055913565,16.9732
1306055973565,16.9812
1306056033565,16.8571
1306056093565,16.9633
1306056153565,17.0388
1306056213565,16.9502
1306056273565,16.9836
1306056333565,16.9623
1306056393565,16.9884
1306056453565,17.0072
1306056513565,16.9329
1306056573565,16.9574
1306056633565,16.9259
1306056693565,16.9525
1306056753565,16.9280
1306056813565,17.0011
1306056873565,16.9971
1306056933565,16.9629
1306056993565,16.9505
1306057053565,16.9943
1306057113565,16.9575
1306057173565,16.9714
1306057233565,16.9936
1306057293565,16.9678
1306057353565,16.9916
1306057413565,17.0022
1306057473565,16.9756
1306057533565,16.9606
1306057593565,16.9492
1306057653565,17.0052
1306057713565,16.9776
1306057773565,16.9926
1306057833565,17.0319
1306057893565,17.0368
1306057953565,17.0139
1306058013565,16.9826
1306058073565,16.9755
1306058133565,16.9720
1306058193565,17.0347
1306058253565,17.0165
1306058313565,17.0254
1306058373565,16.9934
1306058433575,16.9519
1306058493575,16.9915
1306058553575,17.0471
1306058613575,17.0767
1306058673575,17.0737
1306058733575,17.0779
1306058793575,17.0977
1306058853575,17.0535
1306058913575,17.0951
1306058973575,17.0852
1306059033575,17.1262
1306059093575,17.0965
1306059153575,17.0439
1306059213575,17.0475
1306059273575,17.0747
1306059333575,17.1410
1306059393575,17.1051
1306059453575,17.0652
1306059513575,17.1387
1306059573575,17.0662
1306059633575,17.1188
1306059693575,17.1299
1306059753575,17.0497
1306059813575,17.0741
1306059873575,17.0932
1306059933575,17.0897
1306059993575,17.0567
1306060053575,17.0502
1306060113575,17.0792
1306060173575,17.1377
1306060233575,17.0966
1306060293575,17.0820
1306060353575,17.1301
1306060413575,17.0593
1306060473575,17.0794
1306060533575,17.1065
1306060593575,17.1250
1306060653575,17.0908
1306060713575,17.0931
1306060773575,17.0923
1306060833575,17.0576
1306060893575,17.0585
1306060953575,17.0889
1306061013575,17.0485
1306061073575,17.0818
1306061133575,17.0649
1306061193575,17.0855
1306061253575,17.1237
1306061313575,17.1092
1306061373575,17.0741
1306061433575,17.0788
1306061493575,17.0838
1306061553575,17.1416
1306061613575,17.0863
1306061673575,17.0852
1306061733575,17.0799
1306061793575,17.0667
1306061853575,16.9946
1306061913575,17.0827
1306061973575,17.0968
1306062033584,17.1095
1306062093584,17.1211
1306062153584,17.1169
1306062213584,17.0788
1306062273584,17.0642
1306062333584,17.1038
1306062393584,17.0574
1306062453584,17.0377
1306062513584,17.0593
1306062573584,17.0666
1306062633584,17.0275
1306062693584,17.0469
1306062753584,17.0559
1306062813584,17.0606
1306062873584,17.0399
1306062933584,17.0340
1306062993584,17.0276
1306063053584,17.0625
1306063113584,17.0665
1306063173584,17.0369
1306063233584,17.0722
1306063293584,17.0694
1306063353584,17.0599
1306063413584,17.0809
1306063473584,17.0619
1306063533584,17.0418
1306063593584,17.0468
1306063653584,17.0640
1306063713584,17.0620
1306063773584,17.0615
1306063833584,17.0137
1306063893584,17.0668
1306063953584,17.0602
1306064013584,17.0401
1306064073584,17.0607
1306064133584,17.0891
1306064193584,17.0555
1306064253584,17.0958
1306064313584,17.0706
1306064373584,17.0798
1306064433584,17.0386
1306064493584,17.0471
1306064553584,17.0873
1306064613584,17.0349
1306064673584,17.0266
1306064733584,17.0461
1306064793584,17.0415
1306064853584,17.0767
1306064913584,17.0429
1306064973584,17.0635
1306065033584,17.0865
1306065093584,17.0915
1306065153584,17.0848
1306065213584,17.0833
1306065273584,17.0877
1306065333584,17.0690
1306065393584,17.0672
1306065453584,17.0820
1306065513584,17.1185
1306065573584,17.0685
1306065633594,17.0822
1306065693594,17.0739
1306065753594,17.0962
1306065813594,17.1136
1306065873594,17.0386
1306065933594,17.0419
1306065993594,17.0535
1306066053593,17.0644
1306066113593,17.0638
1306066173594,17.1010
1306066233594,17.0545
1306066293594,17.0566
1306066353594,17.1053
1306066413594,17.0673
1306066473594,17.0779
1306066533594,17.0853
1306066593594,17.0659
1306066653594,17.0705
1306066713594,17.0834
1306066773594,17.0964
1306066833594,17.0573
1306066893594,17.1163
1306066953594,17.1104
1306067013594,17.1227
1306067073594,17.0508
1306067133594,17.0720
1306067193594,17.0629
1306067253594,17.0414
1306067313594,17.0571
1306067373594,17.0362
1306067433593,17.0436
1306067493593,17.0307
1306067553594,17.0910
1306067613594,17.0244
1306067673594,17.0415
1306067733594,17.0811
1306067793594,17.0578
1306067853594,17.0683
1306067913594,17.0870
1306067973594,17.1117
1306068033594,17.0732
1306068093594,17.0738
1306068153594,17.0493
1306068213594,17.0917
1306068273594,17.0544
1306068333594,17.0648
1306068393594,17.0822
1306068453594,17.0593
1306068513594,17.0476
1306068573594,17.0668
1306068633594,17.0453
1306068693594,17.0728
1306068753593,17.0925
1306068813593,17.0877
1306068873594,17.0802
1306068933594,17.0451
1306068993594,17.0495
1306069053594,17.0876
1306069113594,17.0484
1306069173594,17.0434
1306069233603,17.0432
1306069293603,17.1113
1306069353603,17.1140
1306069413603,17.0560
1306069473603,17.0671
1306069533603,17.0726
1306069593603,17.0955
1306069653603,17.1008
1306069713603,17.0663
1306069773603,17.0779
1306069833603,17.0487
1306069893603,17.0640
1306069953603,17.0376
1306070013603,17.0614
1306070073603,17.0944
1306070133603,17.0895
1306070193603,17.0963
1306070253603,17.0851
1306070313603,17.1201
1306070373603,17.0692
1306070433603,17.1034
1306070493603,17.1081
1306070553603,16.7896
1306070613603,17.1186
1306071753603,16.9917
1306071813603,16.9489
1306071873603,17.0550
1306071933603,16.9772
1306071993603,17.0643
1306072053603,16.9981
1306072113603,16.9947
1306072173603,17.0360
1306072233603,17.0010
1306072293603,16.9747
1306072353603,16.9712
1306072413603,17.0392
1306072473603,16.9976
1306072533603,17.0377
1306072593603,16.9804
1306072653603,16.9971
1306072713603,17.0274
1306072773603,17.0221
1306072833613,17.0541
1306072893613,16.9930
1306072953613,16.9849
1306073013613,16.9945
1306073073613,16.9898
1306073133613,16.9595
1306073193613,17.0123
1306073253613,17.0313
1306073313613,17.0143
1306073373613,17.0063
1306073433613,17.0016
1306073493613,16.9856
1306073553613,17.0646
1306073613613,16.9934
1306073673613,17.0719
1306073733613,17.0671
1306073793613,17.1162
1306073853613,17.1056
1306073913613,17.0763
1306073973613,17.0988
1306074033613,17.0916
1306074093613,17.1519
1306074153613,17.0785
1306074213613,17.1454
1306074273613,17.1332
1306074333613,17.1192
1306074393613,17.1037
1306074453613,17.0808
1306074513613,17.1452
1306074573613,17.0667
1306074633613,17.0636
1306074693613,17.0744
1306074753613,17.1131
1306074813613,17.0905
1306074873613,17.1323
1306074933613,17.0954
1306074993613,17.0818
1306075053613,17.0897
1306075113613,17.2021
1306075173613,17.1140
1306075233613,17.1780
1306075293613,17.1100
1306075353613,17.0954
1306075413613,17.0885
1306075473613,17.1061
1306075533613,17.0804
1306075593613,17.0552
1306075653613,17.0435
1306075713613,17.0861
1306075773613,17.0822
1306075833613,17.0486
1306075893613,17.0543
1306075953613,17.0150
1306076013613,17.1073
1306076073613,17.0096
1306076133613,17.0460
1306076193613,17.0362
1306076253613,17.0352
1306076313613,17.0252
1306076373613,17.0701
1306076433622,17.0703
1306076493622,17.0762
1306076553622,17.0098
1306076613622,17.0647
1306076673622,17.0584
1306076733622,17.0361
1306076793622,17.0555
1306076853622,17.0382
1306076913622,17.1001
1306076973622,17.0436
1306077033622,17.0686
1306077093622,17.0615
1306077153622,17.0436
1306077213622,17.0385
1306077273622,17.0761
1306077333622,17.0504
1306077393622,17.0340
1306077453622,17.0286
1306077513622,16.9965
1306077573622,17.0137
1306077633622,17.0069
1306077693622,17.0123
1306077753622,17.0069
1306077813622,17.0183
1306077873622,17.0306
1306077933622,17.0361
1306077993622,17.0401
1306078053622,17.0158
1306078113622,16.9847
1306078173622,17.0417
1306078233622,17.0308
1306078293622,17.0759
1306078353622,16.9779
1306078413622,16.9767
1306078473622,17.0430
1306078533622,17.0472
1306078593622,17.0541
1306078653622,17.0244
1306078713622,17.0787
1306078773622,17.0760
1306078833622,17.0677
1306078893622,17.0535
1306078953622,17.0246
1306079013622,17.0503
1306079073622,17.0263
1306079133622,17.0516
1306079193622,17.0558
1306079253622,17.0784
1306079313622,17.0493
1306079373622,17.0101
1306079433622,17.0926
1306079493622,17.0581
1306079553622,17.0815
1306079613622,17.0391
1306079673622,17.0249
1306079733622,17.0602
1306079793622,17.0662
1306079853622,17.1420
1306079913622,17.0867
1306079973622,17.0942
1306080033632,17.0441
1306080093632,17.0273
1306080153632,17.0495
1306080213632,17.0279
1306080273632,17.1049
1306080333632,17.0437
1306080393632,17.0470
1306080453632,17.0214
1306080513632,17.0456
1306080573632,17.0832
1306080633632,17.0841
1306080693632,17.1588
1306080753632,17.1194
1306080813632,17.1539
1306080873632,17.1257
1306080933632,17.0979
1306080993632,17.1400
1306081053632,17.1513
1306081113632,17.0837
1306081173632,17.0957
1306081233632,17.0820
1306081293632,17.0940
1306081353632,17.0932
1306081413632,17.0276
1306081473632,17.0316
1306081533632,17.1155
1306081593632,17.0827
1306081653632,17.0665
1306081713632,17.0701
1306081773632,17.0507
1306081833632,17.0595
1306081893632,17.1035
1306081953632,17.1029
1306082013632,17.0926
1306082073632,17.0451
1306082133632,17.0649
1306082193632,17.0930
1306082253632,17.1094
1306082313632,17.0984
1306082373632,17.0954
1306082433632,17.1241
1306082493632,17.0856
1306082553632,17.0628
1306082613632,17.1271
1306082673632,17.0592
1306082733632,17.1224
1306082793632,17.0421
1306082853632,17.0508
1306082913632,17.0706
1306082973632,17.1097
1306083033632,17.0854
1306083093632,17.1076
1306083153632,17.0756
1306083213632,17.0828
1306083273632,17.0505
1306083333632,17.0798
1306083393632,17.0805
1306083453632,17.1039
1306083513632,17.1214
1306083573632,17.0866
1306083633642,17.0603
1306083693642,17.1098
1306083753642,17.0718
1306083813642,17.1036
1306083873642,17.1243
1306083933642,17.1120
1306083993642,17.0707
1306084053642,17.1163
1306084113642,17.0693
1306084173642,17.1315
1306084233642,17.1630
1306084293642,17.1054
1306084353642,17.0818
1306084413642,17.0866
1306084473642,17.1248
1306084533642,17.0727
1306084593642,17.1440
1306084653642,17.1030
1306084713642,17.0804
1306084773642,17.0672
1306084833642,17.0854
1306084893642,17.0700
1306084953642,17.0870
1306085013642,17.0704
1306085073642,17.0301
1306085133642,17.0202
1306085193642,17.0387
1306085253642,17.0406
1306085313642,17.0315
1306085373642,17.0435
1306085433642,17.0490
1306085493642,17.0877
1306085553642,17.0603
1306085613642,17.0295
1306085673642,17.0546
1306085733642,17.0308
1306085793642,17.0935
1306085853642,17.0492
1306085913642,17.0600
1306085973642,17.0888
1306086033642,17.0449
1306086093642,17.0889
1306086153642,17.0692
1306086213642,17.1079
1306086273642,17.0679
1306086333642,17.0496
1306086393642,17.0879
1306086453642,17.0819
1306086513642,17.0912
1306086573642,17.0557
1306086633642,17.1223
1306086693642,17.1060
1306086753642,17.1222
1306086813642,17.1137
1306086873642,17.0482
1306086933642,17.1252
1306086993642,17.0805
1306087053642,17.0969
1306087113642,17.0657
1306087173642,17.0900
1306087233652,17.0457
1306087293652,17.1156
1306087353652,17.0865
1306087413652,17.0612
1306087473652,17.1045
1306087533652,17.0896
1306087593652,17.0984
1306087653652,17.0567
1306087713652,17.0631
1306087773652,17.0937
1306087833652,17.0980
1306087893652,17.0898
1306087953652,17.1061
1306088013652,17.1189
1306088073652,17.1171
1306088133652,17.1267
1306088193652,17.0712
1306088253652,17.1315
1306088313652,17.0594
1306088373652,17.0899
1306088433652,17.0682
1306088493652,17.0985
1306088553652,17.1230
1306088613652,17.1140
1306088673652,17.1246
1306088733652,17.0770
1306088793652,17.1234
1306088853652,17.1298